Regional Weather Roundup
Issued by NWS

Home | Current Version | Previous Version | Graphics & Text | Print | Product List | Glossary On
Versions: 1 2 3 4 5 6 7 8 9 10 11 12 13 14 15 16 17 18 19 20 21 22 23 24 25 26 27 28 29 30 31 32 33 34 35 36 37 38 39 40 41 42 43 44 45 46 47 48 49 50
000
ASUS43 KBIS 241759
RWRND

NORTH DAKOTA REGIONAL WEATHER ROUNDUP
NATIONAL WEATHER SERVICE BISMARCK ND
1200 PM CST WED DEC 24 2014

NOTE: "FAIR" INDICATES FEW OR NO CLOUDS BELOW 12,000 FEET WITH NO
SIGNIFICANT WEATHER AND/OR OBSTRUCTIONS TO VISIBILITY.


NDZ001>003-009>011-017-241900-
NORTHWEST NORTH DAKOTA

CITY           SKY/WX    TMP DP  RH WIND       PRES   REMARKS
WILLISTON      CLOUDY    32  27  81 SW6       29.53F
6HR MIN TEMP:  22; 6HR MAX TEMP:  32; 6HR PCP: TRACE;

MINOT          CLOUDY    30  23  75 S15       29.51F WCI  19
$$

NDZ018>021-031>035-040>046-241900-
SOUTHWEST NORTH DAKOTA

CITY           SKY/WX    TMP DP  RH WIND       PRES   REMARKS
BISMARCK       CLOUDY    28  21  75 S6        29.62F
6HR MIN TEMP:  23; 6HR MAX TEMP:  29;

GARRISON         N/A     30  24  78 SW9       29.54F
6HR MIN TEMP:  24; 6HR MAX TEMP:  30;

HETTINGER ARPT CLOUDY    33  21  61 SW8       29.60F
$$

NDZ004>008-012>016-024-026-027-054-241900-
NORTHEAST NORTH DAKOTA

CITY           SKY/WX    TMP DP  RH WIND       PRES   REMARKS
GRAND FORKS    CLOUDY    26  24  92 S12       29.70F WCI  16
DEVILS LAKE    CLOUDY    28  25  86 S13       29.60F WCI  18
$$

NDZ022-023-025-028>030-036>039-047>053-241900-
SOUTHEAST NORTH DAKOTA

CITY           SKY/WX    TMP DP  RH WIND       PRES   REMARKS
FARGO          CLOUDY    27  24  89 SW8       29.73F WCI  19
6HR MIN TEMP:  27; 6HR MAX TEMP:  30;

$$



USA.gov is the U.S. government's official web portal to all federal, state and local government web resources and services.